sat.trackr.live / text

‹ back to catalog

NUSAT-26 (M SOMERVILLE)

NORAD 52184 · 2022-033AD

PAYLOAD ACTIVE UNKNOWN

§ Identity

Operator
Country
ARGN
Launch date
2022-04-01
Launch site
AFETR
Launch vehicle
Mass (kg)
RCS (m²)

External: N2YO · Heavens-Above · Gunter

§ Orbital elements

Epoch: 2026-09-20T23:19:09.320160Z

Period
93.17 min
Inclination
97.2275°
Eccentricity
0.0003980
Mean motion
15.45491284 rev/d
Perigee alt
427.2 km
Apogee alt
432.6 km
Semi-major
6,808.1 km
B*
2.7820e-4
RAAN
342.4919°
Arg perigee
248.0546°
Mean anomaly
112.0280°
Rev number
11,948

§ Raw data

NUSAT-26 (M SOMERVILLE)1 52184U 22033AD  26263.97163565  .00013258  00000+0  27820-3 0  99912 52184  97.2275 342.4919 0003980 248.0546 112.0280 15.45491284119485

JSON: /api/v1/satellites/52184 · /tle

For live sub-satellite position, see the globe view (requires WebGL).

§ Visibility from observer

Set your observer location to see the next 7 days of passes ≥ 10°. The values pass through the URL so the page stays shareable.

No JS? Fill the form by hand. The geolocation button needs JavaScript.